Midlothian, TX

12:16 AM CDT on May 22, 2018 (GMT -0500)
Midlothian

Weather History for KJWY - May, 2014

Change the Weather History Date:

Monday, May 12, 2014

  Actual Average (KRBD) Record (KRBD)
Temperature  
Mean Temperature 69 °F -  
Max Temperature 80 °F 80 °F 90 °F (1998)
Min Temperature 58 °F 61 °F 48 °F (2008)
Cooling Degree Days 4    
Growing Degree Days 19 (Base 50)    
Moisture  
Dew Point 66 °F    
Average Humidity 86    
Maximum Humidity 95    
Minimum Humidity 71    
Precipitation  
Precipitation 1.84 in - - ()
Sea Level Pressure  
Sea Level Pressure 29.86 in    
Wind  
Wind Speed 12 mph (SSE)    
Max Wind Speed 18 mph    
Max Gust Speed 31 mph    
Visibility 7 miles    
Events Rain    
Averages and records for this station are not official NWS values.
T = Trace of Precipitation, MM = Missing Value Source: NWS Daily Summary

Daily Weather History Graph

Daily Weather History Graph

Search for Another Location

Airport or City:

Astronomy

May. 12, 2014 Rise Set
Actual Time 6:31 AM CDT 8:16 PM CDT
Civil Twilight 6:04 AM CDT 8:43 PM CDT
Nautical Twilight 5:32 AM CDT 9:16 PM CDT
Astronomical Twilight 4:58 AM CDT 9:50 PM CDT
Moon 6:22 PM CDT (5/12) 5:02 AM CDT (5/12)
Length of Visible Light 14h 39m
Length of Day
13h 45m
Waxing Gibbous, 95% of the Moon is Illuminated
May 12
Waxing Gibbous
May 14
Full
May 21
Last Quarter
May 28
New
Jun 5
First Quarter

Hourly Weather History & Observations

Time (CDT) Temp. Heat Index Dew Point Humidity Pressure Visibility Wind Dir Wind Speed Gust Speed Precip Events Conditions
12:15 AM 75.2 °F - 67.5 °F 77% 29.78 in 10.0 mi SSE 13.8 mph 20.7 mph N/A   Clear
12:35 AM 74.7 °F - 67.5 °F 78% 29.78 in 10.0 mi SSE 13.8 mph 23.0 mph N/A   Clear
12:55 AM 74.5 °F - 67.5 °F 79% 29.78 in 10.0 mi SSE 17.3 mph 23.0 mph N/A   Clear
1:15 AM 74.3 °F - 67.6 °F 80% 29.78 in 10.0 mi SSE 13.8 mph 23.0 mph N/A   Clear
1:35 AM 73.8 °F - 67.5 °F 81% 29.78 in 10.0 mi SE 13.8 mph 19.6 mph N/A   Clear
1:55 AM 73.6 °F - 68.0 °F 83% 29.78 in 10.0 mi SSE 15.0 mph - N/A   Mostly Cloudy
2:15 AM 73.8 °F - 68.0 °F 82% 29.77 in 7.0 mi SSE 17.3 mph 21.9 mph N/A   Scattered Clouds
2:35 AM 73.4 °F - 67.8 °F 83% 29.77 in 7.0 mi SSE 13.8 mph 21.9 mph N/A   Clear
2:55 AM 73.4 °F - 68.0 °F 83% 29.76 in 7.0 mi SSE 12.7 mph 18.4 mph N/A   Scattered Clouds
3:15 AM 73.0 °F - 68.9 °F 87% 29.75 in 7.0 mi SSE 12.7 mph - N/A   Mostly Cloudy
3:35 AM 73.0 °F - 68.9 °F 87% 29.76 in 7.0 mi SSE 11.5 mph - N/A   Mostly Cloudy
3:55 AM 73.0 °F - 68.9 °F 87% 29.76 in 7.0 mi SSE 12.7 mph 17.3 mph N/A   Scattered Clouds
4:15 AM 73.0 °F - 68.9 °F 87% 29.77 in 7.0 mi SSE 13.8 mph 19.6 mph N/A   Scattered Clouds
4:35 AM 72.9 °F - 69.1 °F 88% 29.77 in 7.0 mi SSE 13.8 mph 17.3 mph N/A   Scattered Clouds
4:55 AM 73.4 °F - 69.1 °F 86% 29.78 in 7.0 mi SSE 11.5 mph 17.3 mph N/A   Mostly Cloudy
5:15 AM 73.6 °F - 68.9 °F 85% 29.78 in 7.0 mi SSE 12.7 mph 18.4 mph N/A   Mostly Cloudy
5:35 AM 73.8 °F - 69.1 °F 85% 29.78 in 7.0 mi SSE 11.5 mph - N/A   Mostly Cloudy
5:55 AM 73.9 °F - 69.3 °F 85% 29.79 in 7.0 mi SSE 11.5 mph 18.4 mph N/A   Overcast
6:15 AM 73.8 °F - 69.4 °F 86% 29.79 in 7.0 mi SSE 11.5 mph 16.1 mph N/A   Overcast
6:35 AM 73.9 °F - 69.4 °F 86% 29.79 in 7.0 mi SSE 10.4 mph 20.7 mph N/A   Overcast
6:55 AM 74.3 °F - 69.4 °F 85% 29.80 in 7.0 mi SSE 12.7 mph 21.9 mph N/A   Overcast
7:15 AM 74.5 °F - 69.8 °F 85% 29.80 in 5.0 mi SSE 12.7 mph 19.6 mph N/A   Haze
7:35 AM 74.7 °F - 69.6 °F 84% 29.82 in 7.0 mi SSE 11.5 mph 16.1 mph N/A   Overcast
7:55 AM 74.8 °F - 69.8 °F 84% 29.86 in 5.0 mi South 4.6 mph - N/A   Haze
8:15 AM 74.7 °F - 69.8 °F 85% 29.87 in 7.0 mi South 4.6 mph - N/A   Overcast
8:35 AM 74.8 °F - 70.0 °F 85% 29.89 in 5.0 mi South 3.5 mph - N/A   Haze
8:55 AM 74.3 °F - 70.9 °F 89% 29.89 in 3.0 mi SSE 3.5 mph - 0.02 in Rain Heavy Rain
9:15 AM 73.9 °F - 71.6 °F 92% 29.88 in 3.0 mi Calm Calm - 0.02 in Rain Light Rain
9:35 AM 74.1 °F - 71.8 °F 92% 29.88 in 3.0 mi SSE 6.9 mph - 0.02 in Rain Light Rain
9:55 AM 74.3 °F - 72.0 °F 92% 29.89 in 3.0 mi SE 6.9 mph - 0.02 in Rain Light Rain
10:15 AM 75.6 °F - 73.0 °F 92% 29.88 in 4.0 mi SE 4.6 mph - N/A   Mostly Cloudy
10:35 AM 76.1 °F - 72.3 °F 88% 29.89 in 5.0 mi SE 8.1 mph - N/A   Mostly Cloudy
10:55 AM 78.4 °F - 72.5 °F 82% 29.89 in 7.0 mi SE 10.4 mph 18.4 mph N/A   Mostly Cloudy
11:15 AM 79.3 °F - 70.7 °F 75% 29.89 in 7.0 mi SSE 13.8 mph 28.8 mph N/A   Mostly Cloudy
11:35 AM 78.8 °F - 70.0 °F 74% 29.88 in 10.0 mi SE 17.3 mph 23.0 mph N/A   Mostly Cloudy
11:55 AM 78.6 °F - 69.6 °F 74% 29.89 in 10.0 mi SSE 15.0 mph 23.0 mph N/A   Mostly Cloudy
12:15 PM 78.8 °F - 69.4 °F 73% 29.89 in 10.0 mi SSE 16.1 mph 26.5 mph N/A   Mostly Cloudy
12:35 PM 80.1 °F 83.2 °F 70.0 °F 71% 29.90 in 10.0 mi SSE 15.0 mph 23.0 mph N/A   Mostly Cloudy
12:55 PM 78.4 °F - 69.6 °F 74% 29.89 in 10.0 mi SSE 15.0 mph 20.7 mph N/A   Overcast
1:15 PM 77.4 °F - 69.8 °F 77% 29.89 in 10.0 mi SSE 15.0 mph 25.3 mph N/A   Overcast
1:35 PM 78.8 °F - 70.0 °F 74% 29.87 in 10.0 mi SSE 13.8 mph 23.0 mph N/A   Overcast
1:55 PM 79.9 °F - 69.6 °F 71% 29.86 in 10.0 mi SSE 18.4 mph 29.9 mph N/A   Mostly Cloudy
2:15 PM 77.7 °F - 70.5 °F 78% 29.85 in 10.0 mi SSE 15.0 mph 19.6 mph N/A   Mostly Cloudy
2:35 PM 77.0 °F - 70.0 °F 79% 29.86 in 7.0 mi SSE 16.1 mph 21.9 mph N/A   Overcast
2:55 PM 75.4 °F - 70.0 °F 83% 29.86 in 7.0 mi SSE 12.7 mph 19.6 mph N/A Rain Light Rain
3:15 PM 74.3 °F - 70.7 °F 88% 29.86 in 7.0 mi SSE 11.5 mph 17.3 mph N/A   Light Drizzle
3:35 PM 73.8 °F - 70.5 °F 90% 29.87 in 7.0 mi South 6.9 mph - N/A   Clear
3:55 PM 67.5 °F - 60.6 °F 79% 29.91 in 7.0 mi WNW 15.0 mph 31.1 mph 0.01 in Rain Heavy Rain
4:15 PM 63.9 °F - 61.3 °F 91% 29.91 in 2.0 mi WNW 11.5 mph 23.0 mph 0.16 in Rain Heavy Rain
4:35 PM 63.9 °F - 61.7 °F 93% 29.90 in 1.8 mi WNW 16.1 mph 20.7 mph 0.43 in Rain Heavy Rain
4:55 PM 64.2 °F - 62.4 °F 94% 29.91 in 1.8 mi South 9.2 mph - 0.76 in Rain Heavy Rain
5:15 PM 64.0 °F - 62.1 °F 93% 29.88 in 1.0 mi South 3.5 mph - 0.33 in Rain Heavy Rain
5:35 PM 64.0 °F - 62.6 °F 95% 29.92 in 2.5 mi WSW 8.1 mph - 0.61 in Rain Heavy Rain
5:55 PM 64.4 °F - 62.6 °F 94% 29.88 in 7.0 mi WSW 4.6 mph - 0.69 in Rain Rain
6:15 PM 64.4 °F - 62.8 °F 94% 29.89 in 5.0 mi SSE 3.5 mph - 0.04 in Rain Rain
6:35 PM 65.1 °F - 63.3 °F 94% 29.87 in 10.0 mi NW 10.4 mph - 0.05 in Rain Light Rain
6:55 PM 65.1 °F - 63.1 °F 93% 29.92 in 10.0 mi North 8.1 mph - 0.07 in Rain Rain
7:15 PM 64.0 °F - 62.2 °F 94% 29.89 in 7.0 mi North 5.8 mph - 0.03 in Rain Light Rain
7:35 PM 63.5 °F - 61.7 °F 94% 29.87 in 7.0 mi NE 8.1 mph - 0.04 in Rain Light Rain
7:55 PM 63.1 °F - 61.5 °F 94% 29.86 in 5.0 mi NNE 9.2 mph - 0.07 in Rain Rain
8:15 PM 62.6 °F - 61.2 °F 95% 29.88 in 7.0 mi NNW 9.2 mph - 0.02 in Rain Rain
8:35 PM 61.7 °F - 60.3 °F 95% 29.92 in 10.0 mi WNW 8.1 mph 17.3 mph 0.05 in Rain Light Rain
8:55 PM 61.7 °F - 59.9 °F 94% 29.93 in 10.0 mi WNW 4.6 mph - 0.06 in Rain Light Rain
9:15 PM 61.2 °F - 59.4 °F 94% 29.95 in 10.0 mi NW 8.1 mph - 0.02 in Rain Rain
9:35 PM 60.8 °F - 58.6 °F 93% 29.97 in 7.0 mi NW 9.2 mph - 0.07 in Rain Rain
9:55 PM 59.9 °F - 58.1 °F 94% 29.97 in 7.0 mi NNW 11.5 mph - 0.11 in Rain Rain
10:15 PM 59.5 °F - 58.1 °F 95% 29.95 in 10.0 mi NNW 13.8 mph 20.7 mph 0.02 in Rain Light Rain
10:35 PM 59.5 °F - 57.7 °F 94% 29.99 in 10.0 mi NNW 16.1 mph - 0.02 in Rain Light Rain
10:55 PM 59.0 °F - 56.3 °F 91% 30.00 in 10.0 mi North 16.1 mph 21.9 mph 0.03 in Rain Rain
11:15 PM 58.3 °F - 56.1 °F 93% 30.01 in 10.0 mi North 15.0 mph 23.0 mph N/A Rain Light Rain
11:35 PM 58.3 °F - 55.9 °F 92% 30.03 in 10.0 mi North 16.1 mph 23.0 mph N/A   Scattered Clouds
11:55 PM 58.5 °F - 55.8 °F 91% 30.04 in 10.0 mi North 16.1 mph 23.0 mph N/A   Mostly Cloudy